{"data":{"norad_id":67755,"intl_designator":"2025-313BF","name":"2025-313BF","alt_names":[],"object_type":"PAYLOAD","status":"ACTIVE","operator":null,"country":"TBD","launch_date":"2025-12-28","launch_site_code":"VOSTO","launch_vehicle":null,"mission":null,"orbit_class":"UNKNOWN","rcs_meters":null,"size_class":null,"mass_kg":null,"dimensions":null,"purposes":[],"wikipedia_slug":null,"has_3d_model":false,"image_url":null,"decayed_at":null,"tle_current":{"epoch":"2026-08-11T19:15:20.829888Z","epoch_age_seconds":3519752,"freshness":"OLD","line1":"1 67755U 25313BF  26223.80232442  .17709633  25364-5  11717-2 0  9994","line2":"2 67755  97.3468 304.4179 0021320 277.9063  81.9817 16.38993083 30534","mean_motion":16.38993083,"eccentricity":0.002132,"inclination_deg":97.3468,"raan_deg":304.4179,"arg_perigee_deg":277.9063,"mean_anomaly_deg":81.9817,"bstar":0.0011717,"rev_number":3053,"period_min":87.858821061297,"perigee_km":154.52502302818,"apogee_km":182.43980821639,"semimajor_km":6546.6194156223,"source":"CELESTRAK","updated_at":"2026-08-16T09:00:34.645759Z"}}}